Regional Weather Roundup
Issued by NWS

Home | Current Version | Previous Version | Graphics & Text | Print | Product List | Glossary Off
Versions: 1 2 3 4 5 6 7 8 9 10 11 12 13 14 15 16 17 18 19 20 21 22 23 24 25 26 27 28 29 30 31 32 33 34 35 36 37 38 39 40 41 42 43 44 45 46 47 48 49 50

000
ASUS43 KTOP 270208
RWRKS

WEATHER ROUNDUP FOR KANSAS
NATIONAL WEATHER SERVICE GOODLAND KS
900 PM CDT SUN MAR 26 2017

NOTE:  "FAIR" INDICATES FEW OR NO CLOUDS BELOW 12,000 FEET WITH NO
SIGNIFICANT WEATHER AND/OR OBSTRUCTIONS TO VISIBILITY.

KSZ001>006-013>018-027>032-041>047-270300-
NORTHWEST KANSAS

CITY           SKY/WX    TMP DP  RH WIND       PRES   REMARKS
GOODLAND       CLOUDY    40  39  97 SE8       29.92R
HAYS             N/A     46  44  93 N10       29.92R
HILL CITY      CLOUDY    46  45  96 NW5       29.94S
RUSSELL        CLOUDY    46  45  96 N7        29.89R
$$

KSZ061>065-074>080-084>089-270300-
SOUTHWEST KANSAS

CITY           SKY/WX    TMP DP  RH WIND       PRES   REMARKS
DODGE CITY     CLOUDY    45  43  93 N14       29.90R
ELKHART          N/A     42  33  70 NW8         N/A
GARDEN CITY    CLOUDY    43  41  93 N15       29.91R
GREAT BEND     LGT RAIN  46  45  96 NE6       29.89R
LIBERAL        CLOUDY    48  37  66 NW15G21   29.90S
PRATT          CLOUDY    44  43  97 N17G23    29.84R
$$

KSZ066>073-081>083-090>101-270300-
SOUTHEAST KANSAS

CITY           SKY/WX    TMP DP  RH WIND       PRES   REMARKS
CHANUTE        CLOUDY    56  50  80 NE13      29.83R
COFFEYVILLE    CLOUDY    61  51  70 NE12      29.76F
HUTCHINSON     CLOUDY    49  46  90 NE14G26   29.84R
MEDICINE LODGE   N/A     49  47  93 NE18G28   29.77F
NEWTON         RAIN      49  47  93 NE15      29.85S FOG
PARSONS        CLOUDY    59  52  77 NE8       29.80R
WICHITA INTL   TSTM      51  49  92 NE13      29.82R FOG
WICHITA JABRA  TSTM      50  49  96 N13       29.84R
WICHITA MCCONL TSTM      50  48  93 NE16      29.85R FOG
WINFIELD       TSTM      58  51  78 NW17G28   29.79R
$$

KSZ007>012-019>026-033>040-048>060-102>105-270300-
NORTHEAST KANSAS

CITY           SKY/WX    TMP DP  RH WIND       PRES   REMARKS
CONCORDIA      CLOUDY    46  46 100 NE7       29.89F
EMPORIA        LGT RAIN  49  49 100 NE13      29.85F
LAWRENCE       LGT RAIN  49  47  93 N10       29.91F
MANHATTAN      CLOUDY    49  46  90 NE8       29.89F
MARYSVILLE     CLOUDY    46  45  93 NE7       29.92F
OLATHE IND     CLOUDY    49  45  86 N9        29.93R
OLATHE EXE     LGT RAIN  51  46  83 N8        29.93R
SALINA         CLOUDY    50  47  89 NE12      29.88F
TOPEKA BILLARD LGT RAIN  48  48 100 N9        29.90F
TOPEKA FORBES  CLOUDY    49  47  93 N9        29.89F
$$



USA.gov is the U.S. government's official web portal to all federal, state and local government web resources and services.